Location: Lango�lan
(48.1202°N, 3.2340°W)
Time: 13:48:55
(UTC+00:00)

Cosmos 1741 Rocket - Pass Details

Date: 23 October 2019
Orbit: 762 x 782 km, 74.0° (Epoch: 20 November)

Event Time Altitude Azimuth Distance (km) Brightness Sun altitude
Rises 05:43:53 0° 214° (SW) 3,257 7.0 -10.6°
Reaches altitude 10° 05:46:19 10° 219° (SW) 2,334 6.2 -10.2°
Maximum altitude 05:51:31 56° 297° (WNW) 934 4.1 -9.4°
Drops below altitude 10° 05:56:46 10° 16° (NNE) 2,347 6.6 -8.5°
Sets 05:59:13 0° 21° (NNE) 3,277 7.4 -8.1°
